Weather History for Jefferson City, MO

Change the Weather History Date:

Monday, November 4, 2013

  Actual Average Record
Temperature  
Mean Temperature 57 °F -  
Max Temperature 64 °F 57 °F 81 °F (1978)
Min Temperature 50 °F 35 °F 12 °F (1991)
Degree Days  
Heating Degree Days 8    
Growing Degree Days 7 (Base 50)    
Moisture  
Dew Point 42 °F    
Average Humidity 59    
Maximum Humidity 77    
Minimum Humidity 48    
Precipitation  
Precipitation 0.03 in - - ()
Sea Level Pressure  
Sea Level Pressure 30.07 in    
Wind  
Wind Speed 10 mph (SSE)    
Max Wind Speed 17 mph    
Max Gust Speed 24 mph    
Visibility 10 miles    
Events Rain    
Averages and records for this station are not official NWS values.
T = Trace of Precipitation, MM = Missing Value Source: NWS Daily Summary

Daily Weather History Graph

Daily Weather History Graph

Search for Another Location

Airport:

Trip Planner

Search our weather history database for the weather conditions in past years. The results will help you decide how hot, cold, wet, or windy it might be!

Date:

Astronomy

Nov. 04, 2013 Rise Set
Actual Time 6:38 AM CST 5:05 PM CST
Civil Twilight 6:11 AM CST 5:32 PM CST
Nautical Twilight 5:39 AM CST 6:04 PM CST
Astronomical Twilight 5:08 AM CST 6:35 PM CST
Moon 7:49 AM CST (11/4) 6:10 PM CST (11/4)
Length of Visible Light 11h 21m
Length of Day
10h 26m
New Moon, 2% of the Moon is Illuminated
Nov 4
New Moon
Nov 9
First Quarter
Nov 17
Full
Nov 25
Last Quarter
Dec 2
New

Hourly Weather History & Observations

Time (CST) Temp. Dew Point Humidity Pressure Visibility Wind Dir Wind Speed Gust Speed Precip Events Conditions
12:53 AM 53.1 °F 36.0 °F 52% 30.06 in 10.0 mi SSE 13.8 mph - N/A   Clear
1:53 AM 52.0 °F 36.0 °F 54% 30.04 in 10.0 mi SE 11.5 mph - N/A   Clear
2:53 AM 52.0 °F 36.0 °F 54% 30.04 in 10.0 mi SSE 10.4 mph 18.4 mph N/A   Clear
3:53 AM 52.0 °F 36.0 °F 54% 30.04 in 10.0 mi SE 6.9 mph - N/A   Clear
4:53 AM 52.0 °F 37.0 °F 57% 30.05 in 10.0 mi SE 6.9 mph - N/A   Clear
5:53 AM 51.1 °F 37.0 °F 59% 30.04 in 10.0 mi SE 6.9 mph - N/A   Clear
6:53 AM 51.1 °F 37.0 °F 59% 30.04 in 10.0 mi SE 4.6 mph - N/A   Partly Cloudy
7:53 AM 52.0 °F 39.0 °F 61% 30.05 in 10.0 mi ESE 4.6 mph - 0.00 in Rain Light Rain
8:53 AM 50.0 °F 43.0 °F 77% 30.07 in 10.0 mi ESE 5.8 mph - 0.02 in Rain Light Rain
9:53 AM 51.1 °F 43.0 °F 74% 30.07 in 10.0 mi ESE 5.8 mph - 0.01 in   Overcast
10:53 AM 54.0 °F 43.0 °F 66% 30.07 in 10.0 mi SE 8.1 mph - N/A   Overcast
11:53 AM 55.9 °F 42.1 °F 60% 30.06 in 10.0 mi SSE 9.2 mph - N/A   Overcast
12:53 PM 60.1 °F 43.0 °F 53% 30.03 in 10.0 mi South 17.3 mph 24.2 mph N/A   Mostly Cloudy
1:53 PM 63.0 °F 44.1 °F 50% 30.02 in 10.0 mi South 11.5 mph 18.4 mph N/A   Partly Cloudy
2:53 PM 64.0 °F 44.1 °F 48% 30.03 in 10.0 mi South 12.7 mph - N/A   Partly Cloudy
3:53 PM 63.0 °F 44.1 °F 50% 30.04 in 10.0 mi South 12.7 mph - N/A   Overcast
4:53 PM 62.1 °F 45.0 °F 53% 30.05 in 10.0 mi SSE 8.1 mph - N/A   Overcast
5:53 PM 61.0 °F 45.0 °F 56% 30.07 in 10.0 mi South 9.2 mph - N/A   Overcast
6:53 PM 60.1 °F 45.0 °F 57% 30.10 in 10.0 mi South 12.7 mph 19.6 mph N/A   Overcast
7:53 PM 59.0 °F 45.0 °F 60% 30.12 in 10.0 mi South 12.7 mph - N/A   Overcast
8:53 PM 57.9 °F 45.0 °F 62% 30.13 in 10.0 mi South 8.1 mph - N/A   Overcast
9:53 PM 57.9 °F 45.0 °F 62% 30.15 in 10.0 mi South 5.8 mph - N/A   Overcast
10:53 PM 57.0 °F 46.0 °F 67% 30.15 in 10.0 mi SSE 8.1 mph - N/A   Overcast
11:24 PM 57.2 °F 46.4 °F 67% 30.18 in 10.0 mi South 8.1 mph - N/A   Overcast
11:53 PM 55.9 °F 48.0 °F 75% 30.16 in 9.0 mi South 12.7 mph - N/A   Overcast